Location: ??
(31.9467°N, 34.8903°E)
Time: 12:33:45
(UTC+00:00)

Cosmos 1697 Rocket - Pass Details

Date: 29 October 2020
Orbit: 831 x 845 km, 71.0° (Epoch: 26 November)

Event Time Altitude Azimuth Distance (km) Brightness Sun altitude
Rises 15:20:12 0° 186° (S) 3,358 6.1 -6.4°
Reaches altitude 10° 15:22:40 10° 181° (S) 2,428 5.3 -6.9°
Maximum altitude 15:28:04 53° 106° (ESE) 1,016 2.8 -8.0°
Drops below altitude 10° 15:33:30 10° 31° (NNE) 2,447 4.7 -9.2°
Sets 15:36:00 0° 27° (NNE) 3,387 5.5 -9.7°
